# From MPC 24219 1 Ceres,e,10.5838,80.4898,73.9794,2.767248,0.2141075,0.078744,103.6377,04/01.0/2001,2000,H 3.34,0.12 # From MPC 24084 2 Pallas,e,34.8404,173.1918,310.3368,2.773354,0.2134008,0.229849,90.1237,04/01.0/2001,2000,H 4.13,0.11 # From MPC 24219 4 Vesta,e,7.1346,103.9510,149.4585,2.360775,0.2717203,0.089753,104.8980,04/01.0/2001,2000,H 3.20,0.32 # From MPC 24219 5 Astraea,e,5.3684,141.6914,357.6751,2.573792,0.2386953,0.192607,148.3430,04/01.0/2001,2000,H 6.85,0.15 # From MPC 24219 6 Hebe,e,14.7670,138.8591,238.9403,2.424894,0.2610147,0.201792,165.0240,04/01.0/2001,2000,H 5.71,0.24 # From MPC 24084 7 Iris,e,5.5242,259.8660,145.1709,2.386217,0.2673863,0.230119,175.1493,04/01.0/2001,2000,H 5.51,0.15 # From MPC 35055 10 Hygiea,e,3.8437,283.6550,314.1838,3.137339,0.1773625,0.119298,60.1420,04/01.0/2001,2000,H 5.43,0.15 # From MPC 24085 11 Parthenope,e,4.6223,125.6557,194.3660,2.452166,0.2566725,0.098804,26.8410,04/01.0/2001,2000,H 6.55,0.15 # From MPO 2601 13 Egeria,e,16.5409,43.3254,80.8381,2.576012,0.2383869,0.084554,54.3618,04/01.0/2001,2000,H 6.74,0.15 # From MPO 595 14 Irene,e,9.1068,86.5067,96.5167,2.585869,0.2370250,0.167587,41.9103,04/01.0/2001,2000,H 6.30,0.15 # From MPC 24219 15 Eunomia,e,11.7467,293.4961,97.0651,2.644792,0.2291484,0.185819,211.4641,04/01.0/2001,2000,H 5.28,0.23 # From MPC 24085 18 Melpomene,e,10.1268,150.5732,227.7004,2.295816,0.2833339,0.217717,197.3362,04/01.0/2001,2000,H 6.51,0.25 # From MPC 24219 19 Fortuna,e,1.5721,211.4904,182.1006,2.442102,0.2582607,0.158058,292.5353,04/01.0/2001,2000,H 7.13,0.10 # From MPC 24085 20 Massalia,e,0.7059,206.6051,255.6566,2.409500,0.2635200,0.142602,178.8178,04/01.0/2001,2000,H 6.50,0.25 # From MPO 2601 22 Kalliope,e,13.7236,66.3256,357.3907,2.908005,0.1987519,0.101732,324.5513,04/01.0/2001,2000,H 6.45,0.21 # From MPO 4876 23 Thalia,e,10.1499,67.2648,59.4037,2.626098,0.2315996,0.233776,248.7890,04/01.0/2001,2000,H 6.95,0.15 # From MPC 22472 24 Themis,e,0.7613,36.0763,108.8139,3.127467,0.1782030,0.134246,260.3084,04/01.0/2001,2000,H 7.08,0.19 # From MPC 23111 26 Proserpina,e,3.5617,45.9498,193.6283,2.655988,0.2277010,0.088395,42.4012,04/01.0/2001,2000,H 7.5,0.15 # From MPC 23111 29 Amphitrite,e,6.1020,356.5634,62.1620,2.554505,0.2414037,0.071884,132.4282,04/01.0/2001,2000,H 5.85,0.20 # From MPC 35405 36 Atalante,e,18.4185,358.5139,47.3915,2.747776,0.2163875,0.302529,312.0945,04/01.0/2001,2000,H 8.46,0.15 # From MPC 31001 37 Fides,e,3.0724,7.4553,63.0826,2.641373,0.2295934,0.175941,266.6964,04/01.0/2001,2000,H 7.29,0.24 # From MPC 30777 39 Laetitia,e,10.3698,157.2288,208.7340,2.768657,0.2139441,0.111338,329.9572,04/01.0/2001,2000,H 6.1,0.15 # From MPC 31001 40 Harmonia,e,4.2564,94.3198,269.3334,2.266869,0.2887782,0.045973,2.5532,04/01.0/2001,2000,H 7.0,0.15 # From MPC 22796 42 Isis,e,8.5385,84.5697,235.9327,2.441324,0.2583843,0.223874,300.1024,04/01.0/2001,2000,H 7.53,0.15 # From MPC 25032 43 Ariadne,e,3.4700,265.0276,15.7762,2.203107,0.3014052,0.168774,309.3767,04/01.0/2001,2000,H 7.93,0.11 # From MPO 3854 44 Nysa,e,3.7025,131.6131,342.6481,2.424005,0.2611583,0.148294,159.3616,04/01.0/2001,2000,H 7.03,0.46 # From MPC 25033 45 Eugenia,e,6.6107,147.9644,86.2508,2.720906,0.2196007,0.083124,30.7340,04/01.0/2001,2000,H 7.46,0.07 # From MPC 35405 48 Doris,e,6.5478,183.9580,260.2275,3.108922,0.1797999,0.074218,316.0340,04/01.0/2001,2000,H 6.90,0.15 # From MPC 31001 51 Nemausa,e,9.9668,176.2046,3.2016,2.365750,0.2708636,0.066925,107.4150,04/01.0/2001,2000,H 7.35,0.08 # From MPC 24371 52 Europa,e,7.4674,129.0294,342.5824,3.100276,0.1805525,0.101216,124.6453,04/01.0/2001,2000,H 6.31,0.18 # From MPC 24085 54 Alexandra,e,11.8276,313.5334,344.9479,2.709911,0.2209386,0.199186,0.9422,04/01.0/2001,2000,H 7.66,0.15 # From MPC 27692 60 Echo,e,3.6012,191.8525,270.5184,2.393158,0.2662239,0.182558,252.0417,04/01.0/2001,2000,H 8.21,0.27 # From MPC 26379 67 Asia,e,6.0197,202.9165,105.4642,2.421078,0.2616320,0.185227,353.7045,04/01.0/2001,2000,H 8.28,0.15 # From MPC 24548 68 Leto,e,7.9557,44.4456,303.7760,2.783096,0.2122813,0.185534,300.5212,04/01.0/2001,2000,H 6.78,0.05 # From MPO 2601 70 Panopaea,e,11.5797,47.9659,255.2845,2.615239,0.2330435,0.183353,332.5699,04/01.0/2001,2000,H 8.11,0.14 # From MPC 24716 74 Galatea,e,4.0567,197.5593,173.8835,2.780966,0.2125252,0.235937,310.8872,04/01.0/2001,2000,H 8.66,0.15 # From MPC 30777 89 Julia,e,16.1378,311.6893,44.7716,2.550788,0.2419315,0.181341,341.3750,04/01.0/2001,2000,H 6.60,0.15 # From MPO 2601 97 Klotho,e,11.7774,159.7921,268.9265,2.668914,0.2260487,0.256299,259.1372,04/01.0/2001,2000,H 7.63,0.15 # From MPC 22796 101 Helena,e,10.1903,343.5469,346.7111,2.582763,0.2374527,0.140650,348.2661,04/01.0/2001,2000,H 8.33,0.35 # From MPO 8362 103 Hera,e,5.4230,136.3186,188.2318,2.702297,0.2218730,0.080380,330.9531,04/01.0/2001,2000,H 7.66,0.15 # From MPC 25186 114 Kassandra,e,4.9366,164.4093,352.9290,2.676699,0.2250633,0.135972,16.1094,04/01.0/2001,2000,H 8.26,0.15 # From MPO 595 116 Sirona,e,3.5727,64.0874,93.2257,2.768335,0.2139814,0.139303,251.1705,04/01.0/2001,2000,H 7.82,0.15 # From MPC 25186 128 Nemesis,e,6.2552,76.4725,302.9718,2.749108,0.2162302,0.128117,86.4292,04/01.0/2001,2000,H 7.49,0.15 # From MPO 2601 129 Antigone,e,12.2250,136.4721,108.5505,2.866986,0.2030326,0.214047,43.8546,04/01.0/2001,2000,H 7.07,0.33 # From MPC 23654 138 Tolosa,e,3.2097,55.0940,259.0997,2.448417,0.2572622,0.162564,349.7376,04/01.0/2001,2000,H 8.75,0.15 # From MPC 22665 144 Vibilia,e,4.8108,76.6847,293.1665,2.656182,0.2276761,0.232463,305.0604,04/01.0/2001,2000,H 7.91,0.17 # From MPO 2601 196 Philomela,e,7.2538,72.6586,206.4268,3.114414,0.1793245,0.024848,341.1711,04/01.0/2001,2000,H 6.54,0.15 # From MPC 35405 234 Barbara,e,15.3420,144.6806,191.6564,2.386684,0.2673078,0.243085,320.4401,04/01.0/2001,2000,H 9.02,0.15 # From MPC 27543 247 Eukrate,e,24.9765,0.2709,55.3374,2.740775,0.2172171,0.243704,299.2414,04/01.0/2001,2000,H 8.04,0.15 # From MPC 22573 270 Anahita,e,2.3669,254.6705,79.9293,2.198463,0.3023607,0.150020,326.3431,04/01.0/2001,2000,H 8.75,0.15 # From MPC 22200 346 Hermentaria,e,8.7615,92.1775,290.6037,2.795049,0.2109211,0.103379,89.8162,04/01.0/2001,2000,H 7.13,0.15 # From MPC 31001 349 Dembowska,e,8.2437,32.6409,345.1541,2.925991,0.1969222,0.085867,284.5575,04/01.0/2001,2000,H 5.93,0.37 # From MPC 31001 354 Eleonora,e,18.3835,140.5282,6.4573,2.798830,0.2104938,0.112289,23.9611,04/01.0/2001,2000,H 6.44,0.37 # From MPC 24549 409 Aspasia,e,11.2396,242.4469,353.2573,2.576740,0.2382859,0.071418,5.8866,04/01.0/2001,2000,H 7.62,0.29 # From MPC 27290 410 Chloris,e,10.9269,97.2838,172.2349,2.728203,0.2187203,0.237900,341.2972,04/01.0/2001,2000,H 8.30,0.15 # From MPC 24220 451 Patientia,e,15.2363,89.4647,342.9097,3.059703,0.1841557,0.075919,322.6524,04/01.0/2001,2000,H 6.65,0.19 # From MPC 31002 511 Davida,e,15.9474,107.7651,339.0086,3.168184,0.1747787,0.183567,257.4936,04/01.0/2001,2000,H 6.22,0.16 # From MPC 31002 532 Herculina,e,16.3080,107.6580,76.8544,2.771679,0.2135943,0.177383,14.0706,04/01.0/2001,2000,H 5.81,0.26 # From MPC 24550 563 Suleika,e,10.2525,85.4928,336.9927,2.711126,0.2207900,0.236043,309.1343,04/01.0/2001,2000,H 8.50,0.15 # From MPC 31002 704 Interamnia,e,17.3277,280.6551,94.7088,3.062276,0.1839237,0.145956,326.1202,04/01.0/2001,2000,H 5.94,-0.02 # From MPC 22574 712 Boliviana,e,12.7856,231.1076,181.5664,2.573832,0.2386898,0.187883,323.1494,04/01.0/2001,2000,H 8.32,0.03